Theta_e
317 316 315 314 313 312 312 311 311 311 310 309 308 307 306 306 308 310 311 313 315 314 313 314 315 315 315 314 313 313 313 315 316 316 316 315 314 314 313 311 310 310 310 310 309 308 304 300 297 295 294 294 294 294 294 293 293 292 292 292 292 292 291 289 289 288 288 288 288 288 288 288 288 287 287 287 287 287 287 287 287 287 287 287 287
317 316 315 315 313 312 311 311 311 311 310 309 308 307 306 307 308 310 313 314 312 311 313 314 314 313 313 314 314 313 313 315 315 315 315 314 314 313 310 306 304 306 307 308 308 306 302 298 295 294 294 294 294 294 293 292 292 292 292 293 293 292 291 290 289 288 288 289 289 289 289 288 288 288 287 287 287 287 287 287 287 287 287 287 287
317 317 316 316 315 313 312 311 311 311 310 309 308 307 307 308 308 310 312 313 312 313 314 314 314 312 311 313 314 312 312 314 314 314 314 314 314 312 306 299 298 300 304 306 306 304 300 296 294 294 293 293 293 293 292 291 292 293 294 294 294 292 291 289 289 289 289 289 289 288 288 288 288 288 288 287 287 287 287 287 287 287 287 287 287
317 317 317 316 315 315 313 312 312 311 310 309 308 308 308 308 309 309 310 312 313 314 314 313 312 311 311 313 313 312 311 312 312 313 313 313 313 309 301 296 297 300 303 304 303 301 297 294 294 293 293 293 292 292 291 292 293 294 295 295 294 292 290 289 289 289 289 289 289 288 288 288 288 288 287 287 287 287 287 287 287 287 287 287 287
317 317 317 316 316 316 314 313 312 311 310 309 308 308 308 308 309 309 310 311 313 314 314 313 311 310 311 313 313 311 310 310 310 311 311 312 312 307 298 294 296 299 301 302 300 298 295 294 294 293 293 292 291 291 292 293 294 295 296 296 294 292 291 290 291 290 289 289 288 288 288 288 287 287 287 286 286 286 286 286 286 286 286 287 287
317 317 317 316 316 316 316 314 313 312 310 309 309 308 308 308 308 308 309 311 313 314 314 312 311 310 311 312 312 310 310 309 309 309 310 310 311 308 299 293 295 297 299 299 297 295 294 293 293 293 292 292 291 291 292 294 295 296 296 296 294 293 292 292 291 290 289 288 288 288 288 288 288 287 287 286 286 286 286 286 286 286 286 286 286
317 317 317 316 317 316 316 315 314 312 311 309 309 308 308 308 308 308 309 311 313 313 313 312 310 310 311 312 311 310 310 309 309 309 309 310 311 309 301 294 294 295 296 296 294 293 293 293 293 292 291 291 290 292 293 295 296 296 296 295 294 292 292 292 291 290 289 289 289 289 289 289 288 288 287 287 287 287 287 287 287 286 286 286 286
317 317 316 316 316 316 316 315 314 312 311 309 308 308 307 308 308 308 309 310 312 312 311 310 309 309 311 311 310 309 309 309 308 308 308 309 309 309 304 295 292 294 294 293 293 292 293 292 292 291 290 290 290 292 294 295 296 296 295 294 293 292 292 291 290 290 289 289 289 289 289 289 288 288 288 288 287 287 287 287 287 287 287 286 286
317 317 316 316 316 316 315 314 314 312 311 309 308 308 307 308 309 309 309 310 311 311 310 309 308 309 310 310 309 308 307 307 308 307 308 309 308 306 303 295 292 293 293 292 293 292 292 292 291 290 289 289 291 292 293 295 296 296 295 294 293 292 291 290 290 289 289 289 289 289 289 289 288 288 288 288 288 287 287 287 287 287 287 286 286
316 316 316 316 316 315 314 314 313 312 311 309 308 307 307 307 309 309 310 310 311 310 310 309 309 309 310 309 308 307 307 307 308 308 308 308 306 303 300 294 292 293 292 292 292 292 292 291 290 290 289 289 291 292 294 295 295 295 294 294 293 292 291 290 289 289 289 289 289 288 288 288 288 288 288 288 288 287 287 287 286 286 286 286 286
316 316 316 316 315 315 314 313 313 312 310 309 307 307 307 307 308 309 310 310 311 310 310 310 309 309 309 309 308 308 308 307 307 307 307 307 304 301 298 293 291 292 292 292 292 292 291 291 290 289 289 290 291 293 294 295 295 295 294 293 293 292 291 290 289 289 289 288 288 288 288 288 288 288 288 288 288 287 287 286 286 285 285 285 285
315 316 316 315 315 314 313 313 312 311 310 309 307 306 306 307 307 308 310 310 310 310 309 308 309 308 308 308 308 308 308 307 306 306 305 305 302 299 295 292 291 292 292 292 292 292 291 290 289 289 289 290 292 293 294 295 295 294 293 293 292 291 291 290 289 289 289 288 288 288 288 288 288 288 288 287 287 287 286 285 285 284 284 284 283
315 315 315 315 314 314 313 313 312 311 310 308 307 306 306 306 307 307 309 310 309 309 308 307 307 307 307 307 308 308 307 306 306 304 304 304 301 296 292 291 291 291 291 291 291 291 290 290 289 289 290 291 293 294 294 294 294 294 293 293 292 291 291 290 289 289 289 288 288 288 288 288 287 287 287 287 286 286 285 284 284 283 283 283 283
314 314 314 314 314 314 313 313 312 311 309 308 306 306 305 305 306 307 308 308 308 308 307 306 306 307 307 307 307 307 306 305 305 303 301 301 298 294 291 290 291 291 291 291 291 290 290 289 289 290 291 293 293 293 294 294 294 293 293 292 292 291 291 290 289 289 289 288 288 288 288 287 287 287 287 286 285 285 284 284 283 283 283 282 282
313 313 314 314 313 313 313 312 311 310 309 308 306 306 305 305 305 306 307 307 307 306 306 305 306 306 306 306 306 306 305 304 303 301 299 298 295 291 290 290 290 290 290 290 290 289 289 289 291 292 292 293 293 293 293 294 294 293 293 292 292 291 290 290 289 288 288 288 287 287 287 287 286 286 286 285 284 284 283 283 283 282 282 282 282
314 313 313 313 313 312 312 311 310 309 308 307 306 305 304 304 304 305 305 306 306 305 304 304 305 305 306 306 305 304 304 302 300 298 297 294 291 289 289 289 289 289 289 289 289 289 290 291 292 292 292 293 293 293 293 293 293 293 292 292 291 291 290 289 288 287 287 287 286 286 286 286 285 284 284 283 283 283 283 282 282 282 282 281 281
313 313 312 312 312 311 311 310 309 308 307 306 305 304 303 303 303 304 304 305 305 305 304 304 305 305 305 304 304 303 301 300 297 296 295 292 289 288 289 289 288 289 289 289 289 289 290 291 291 291 292 293 293 292 292 293 293 292 292 292 291 290 290 288 287 287 286 286 285 285 285 285 284 284 283 282 282 282 282 281 281 281 281 281 281
312 312 311 311 310 310 309 308 306 306 305 304 303 303 302 302 302 302 303 304 304 304 304 304 304 304 304 303 302 299 298 296 295 294 294 291 288 288 288 288 288 288 288 288 289 289 290 290 291 291 292 292 291 291 292 293 292 292 291 291 290 290 289 288 287 286 285 285 284 284 284 284 283 283 283 283 282 282 281 281 281 281 280 280 280
311 311 310 310 309 308 307 306 305 304 303 303 302 302 301 301 301 301 302 303 303 303 304 303 303 302 301 301 299 296 295 294 292 292 292 290 288 288 288 288 287 287 287 288 288 288 289 290 291 292 292 292 291 291 292 292 292 291 290 289 289 289 288 286 286 285 284 284 284 283 283 283 283 283 284 284 283 282 281 281 281 280 280 280 280
311 310 309 309 308 307 306 305 304 303 303 302 301 301 300 300 300 300 301 301 302 302 302 301 301 300 300 299 297 295 293 291 290 289 289 288 288 287 287 287 286 287 287 287 287 288 289 290 291 292 292 292 291 292 293 292 291 290 289 288 288 287 286 285 285 284 284 284 284 284 284 284 283 283 283 282 281 281 280 280 280 280 279 279 278
309 308 308 307 306 305 305 304 303 302 302 301 300 300 299 299 299 300 300 300 300 300 300 300 300 299 299 298 295 292 290 289 287 287 287 287 287 287 286 286 286 286 286 287 288 289 290 291 292 293 292 291 292 293 292 291 290 289 288 287 286 285 284 284 284 284 284 284 284 283 283 282 282 282 281 281 280 280 280 280 279 279 278 278 277
308 307 307 306 305 304 303 302 302 301 300 300 299 299 298 298 298 299 299 299 299 299 299 299 298 298 297 296 292 289 287 286 286 286 286 286 286 286 285 285 286 286 286 287 288 290 291 292 293 292 292 292 293 293 291 290 288 287 286 285 284 284 284 284 284 284 283 283 282 282 281 281 281 281 280 280 280 279 279 279 278 278 277 276 276
306 306 305 304 303 303 302 301 300 300 299 298 298 298 298 298 298 298 298 298 297 297 297 297 297 296 296 295 292 289 287 286 286 286 286 286 286 285 285 285 286 286 287 289 290 291 292 292 292 293 293 293 292 291 289 287 286 285 285 285 284 284 284 284 284 284 283 282 281 281 281 280 280 280 280 279 279 279 278 278 277 277 276 276 276
305 304 304 303 302 301 300 300 299 298 298 297 297 297 297 297 297 297 297 297 296 296 296 296 295 295 294 294 293 291 289 287 286 286 286 286 286 286 286 287 288 288 289 290 291 292 292 293 293 294 293 291 289 287 286 286 286 286 286 285 285 285 285 284 284 283 282 282 281 280 280 279 279 279 279 279 278 278 278 278 277 277 276 276 276
303 303 302 301 301 300 300 299 298 298 297 297 297 297 297 297 297 297 297 296 296 295 295 294 293 292 292 291 291 291 290 289 288 288 287 287 287 287 288 289 289 290 291 291 292 293 294 294 293 291 290 288 287 287 287 287 287 286 286 286 286 285 284 284 283 282 282 282 281 280 279 279 279 279 278 278 278 278 277 277 276 275 275 274 274
302 302 301 301 300 300 299 299 298 298 297 298 297 297 297 297 297 297 296 295 294 293 293 292 291 291 290 290 290 291 291 290 290 290 289 289 289 290 290 290 291 292 293 293 294 293 292 291 290 288 288 287 287 287 287 287 287 287 287 286 286 285 284 284 283 282 281 280 280 279 278 278 278 277 277 276 276 275 275 274 274 274 273 273 273
302 302 301 301 300 300 300 299 299 298 298 297 297 296 296 296 295 294 294 293 292 292 292 292 292 292 292 292 292 292 292 292 292 291 291 291 292 292 292 293 293 293 293 293 292 290 289 288 288 287 287 287 287 287 287 287 287 286 286 286 285 284 283 282 281 280 279 278 277 277 276 276 276 275 275 275 274 274 273 273 273 273 272 272 272
303 302 302 301 301 300 300 299 299 298 296 295 295 294 293 293 292 293 293 293 294 294 294 294 295 295 295 295 294 294 293 293 293 293 293 293 293 293 293 293 292 291 291 290 289 288 288 288 287 287 287 287 287 287 287 287 286 286 285 284 284 283 281 280 278 277 277 276 276 276 275 275 275 274 274 274 273 273 272 272 271 271 270 270 270
302 302 302 301 301 300 299 298 297 296 295 294 294 293 293 293 293 294 295 295 296 296 296 296 296 296 296 295 295 295 294 294 294 293 293 292 292 291 291 290 289 289 289 288 288 288 288 288 287 287 287 287 287 286 286 285 285 284 283 283 281 280 279 278 277 276 276 275 275 274 274 274 273 273 273 273 272 272 271 271 270 270 269 269 268
303 302 302 301 300 299 298 297 296 296 295 295 295 295 295 295 295 295 296 296 296 295 295 295 294 294 294 294 293 293 292 291 291 290 290 290 289 289 289 289 288 288 288 288 288 288 288 287 287 287 287 286 286 285 285 284 283 282 281 280 279 278 277 277 276 276 275 274 274 273 273 273 273 273 272 272 272 271 271 270 270 270 269 268 267
304 303 302 301 300 300 299 298 297 297 297 297 297 296 296 296 296 295 295 295 295 294 294 294 293 293 292 291 291 290 289 289 289 289 289 289 289 289 288 288 288 288 288 288 288 288 287 287 286 286 286 285 284 284 283 282 282 281 280 279 278 277 277 276 276 275 274 274 273 273 273 273 272 272 272 271 271 271 270 270 270 269 268 267 266
303 303 302 301 301 300 299 299 298 298 298 297 297 297 297 297 296 295 294 294 293 293 292 292 292 291 290 290 289 289 289 289 289 289 289 289 289 289 288 288 288 288 288 288 287 287 286 286 285 285 284 284 283 283 282 281 280 279 278 277 277 276 276 276 275 274 274 273 273 273 273 272 272 272 271 271 271 270 270 270 269 269 268 267 266
301 301 301 300 300 299 299 298 298 297 297 297 297 297 297 297 296 295 294 293 291 291 290 290 290 290 289 289 289 289 289 289 289 289 289 289 289 289 288 288 288 287 287 287 286 286 285 285 284 284 283 283 282 282 281 280 279 278 277 277 276 276 275 275 275 274 273 273 273 273 272 272 272 271 271 271 270 270 269 269 269 268 267 267 266
299 299 299 298 298 297 297 297 297 297 297 297 297 296 296 295 295 294 293 292 290 290 290 289 289 289 289 289 289 289 289 289 289 289 289 289 288 288 288 287 287 286 286 286 285 285 285 284 284 283 283 282 281 281 280 279 278 277 277 276 276 275 275 274 274 273 273 273 272 272 272 272 271 271 271 270 270 269 269 268 268 267 267 266 266
298 298 298 297 297 297 297 297 297 297 296 296 295 295 294 293 292 292 292 291 290 290 289 289 289 289 289 289 289 289 289 289 289 289 288 288 288 287 287 286 286 286 285 285 284 284 284 283 283 282 282 281 280 280 279 278 277 277 276 276 275 275 274 273 273 273 273 272 272 272 272 271 271 271 270 270 269 269 268 268 267 267 266 266 265
297 297 297 297 297 297 296 296 296 295 295 294 293 292 292 291 290 290 290 290 290 290 290 289 289 289 289 289 289 289 289 289 288 288 287 287 287 286 286 286 285 285 285 284 284 283 283 283 282 282 281 280 279 278 278 277 276 276 276 275 274 274 273 273 273 272 272 272 272 272 271 271 271 270 269 269 269 268 268 267 267 267 266 266 265
297 297 296 296 296 295 295 294 293 293 292 291 291 290 290 290 290 289 290 289 289 289 289 289 289 289 289 289 289 289 288 288 287 287 287 286 286 286 285 285 285 284 284 283 283 283 282 282 282 281 280 279 278 278 277 276 276 275 275 274 274 273 273 272 272 272 272 272 271 271 271 271 270 270 269 269 268 268 268 267 267 267 266 266 265
295 295 294 294 293 293 292 291 291 290 290 290 290 289 289 289 289 289 289 289 289 289 289 289 289 289 289 289 288 288 287 287 287 286 286 286 285 285 285 284 284 283 283 283 282 282 282 281 281 280 279 278 277 277 276 276 275 275 274 274 273 273 272 272 272 272 271 271 271 271 271 270 270 269 269 269 268 268 268 267 267 267 266 266 266
292 292 292 291 291 290 290 290 290 290 290 289 289 289 289 289 289 289 289 289 289 289 289 289 289 289 289 288 287 287 286 286 286 286 285 285 285 284 284 283 283 283 283 282 282 282 281 280 280 279 278 277 277 276 276 275 275 274 274 273 273 272 272 272 272 271 271 271 271 271 270 270 269 269 269 268 268 268 268 267 267 267 266 266 266
291 290 290 290 290 290 290 290 290 289 289 289 289 289 289 289 289 289 289 289 289 289 289 289 289 288 288 287 287 286 286 286 285 285 285 284 284 283 283 283 283 282 282 282 281 281 280 279 278 278 277 276 276 275 275 275 274 274 273 273 272 272 272 271 271 271 271 270 270 270 270 270 269 269 269 268 268 268 267 267 267 266 266 266 266
290 290 290 290 290 290 290 290 289 289 289 289 289 289 289 289 289 289 289 289 289 289 288 288 288 288 287 286 286 286 285 285 285 284 284 283 283 283 283 282 282 282 281 281 280 280 279 278 277 277 276 276 275 275 275 274 274 273 273 272 272 272 271 271 271 271 270 270 270 270 270 269 269 269 269 268 268 268 268 267 267 267 266 266 266
290 290 290 290 290 290 290 289 289 289 289 289 289 289 289 289 289 289 289 288 288 288 288 288 287 287 286 286 285 285 285 284 284 284 283 283 283 282 282 282 281 281 280 280 279 278 278 277 276 276 276 275 275 275 274 274 273 273 272 272 272 271 271 271 271 270 270 270 270 269 269 269 269 269 269 268 268 268 268 267 267 267 266 266 266
290 290 290 290 290 289 289 289 289 289 289 289 289 289 289 289 288 288 288 288 288 287 287 287 286 286 285 285 285 284 284 284 283 283 282 282 282 282 281 281 281 280 279 279 278 277 277 276 276 275 275 275 274 274 273 273 272 272 272 272 271 271 271 271 271 270 270 270 269 269 269 269 269 269 269 268 268 268 268 268 267 267 267 266 266
289 289 289 289 289 289 289 289 289 288 288 288 288 288 288 288 288 288 288 287 287 287 286 286 285 285 285 284 284 284 283 283 282 282 282 281 281 281 280 280 279 279 278 277 277 276 276 275 275 275 274 274 274 273 273 272 272 272 271 271 271 271 271 271 270 270 270 270 270 269 269 269 268 268 268 268 268 268 268 268 268 267 267 267 267
289 289 289 289 289 288 288 288 288 288 288 288 288 288 288 288 287 287 287 286 286 286 285 285 284 284 284 284 283 282 282 281 281 281 281 280 280 280 279 279 278 277 277 277 276 276 275 275 274 274 274 273 273 273 272 272 271 271 271 271 271 271 271 270 270 270 270 270 269 269 269 269 269 268 268 268 267 267 267 267 267 267 267 267 267
289 289 288 288 288 288 288 288 288 288 288 288 288 288 287 287 287 286 286 285 285 285 284 284 284 283 283 282 282 281 281 280 280 280 280 279 279 279 278 278 277 277 276 276 276 275 275 274 274 274 273 273 273 273 272 272 271 271 271 271 271 271 270 270 270 270 270 269 269 269 269 269 269 268 268 268 267 267 267 267 267 267 267 267 266
288 288 288 288 288 288 288 288 288 287 287 287 287 287 286 286 285 285 284 284 284 283 283 283 282 282 281 281 280 280 280 279 279 279 279 278 278 277 277 277 276 276 276 275 275 275 274 274 273 273 273 273 272 272 272 271 271 271 270 270 270 270 270 270 270 269 269 269 269 269 269 269 269 268 268 268 267 267 267 267 267 267 267 267 267
288 288 288 288 288 287 287 287 287 287 286 286 286 285 285 284 284 284 283 283 282 282 282 281 281 280 280 279 279 279 278 278 278 277 277 277 276 276 276 276 276 275 275 275 274 274 274 273 273 273 273 272 272 272 271 271 270 270 270 270 270 270 270 270 270 269 269 269 269 269 269 269 268 268 268 268 268 267 267 267 267 267 267 267 267
288 288 287 287 287 286 286 286 285 285 285 285 284 284 283 283 283 282 282 282 281 281 280 280 279 279 278 278 278 278 277 277 276 276 276 276 275 275 275 275 275 274 274 274 274 273 273 273 273 272 272 272 272 271 271 270 270 270 270 270 270 270 270 270 269 269 269 269 269 268 268 268 268 268 268 268 267 267 267 267 267 267 267 267 267
287 287 286 286 286 285 285 284 284 284 283 283 283 282 282 282 282 282 281 281 280 279 279 278 278 278 278 277 277 276 276 276 275 275 275 275 275 274 274 274 274 274 273 273 273 273 272 272 272 272 272 272 271 271 271 270 270 269 269 269 269 269 269 269 269 269 269 268 268 268 268 268 268 268 268 267 267 267 267 267 267 267 267 267 267
286 285 285 285 284 284 283 283 282 282 282 282 281 281 281 281 281 280 280 279 278 278 277 277 277 277 277 276 276 275 275 275 274 274 274 274 274 273 273 273 273 273 273 272 272 272 272 272 271 271 271 271 271 270 270 270 269 269 269 269 269 269 269 269 269 269 268 268 268 268 268 268 268 268 268 267 267 267 267 267 267 267 267 266 266
Wind_Speed
17 19 20 21 22 23 25 27 28 28 26 28 30 31 32 34 35 35 33 33 34 33 32 32 31 30 30 31 29 31 34 35 37 39 38 37 36 35 35 36 38 40 38 37 35 35 33 31 30 29 26 23 20 17 14 11 9 7 7 8 9 9 10 11 14 15 16 18 19 22 22 22 22 22 23 23 24 25 26 26 26 27 28 28 29
18 19 20 21 22 23 24 26 26 25 24 27 29 31 32 33 33 33 33 33 32 32 32 32 30 27 29 32 31 31 34 35 35 37 38 38 37 35 36 37 39 39 38 37 36 35 33 32 31 29 26 23 19 16 12 9 8 8 9 10 11 11 11 12 14 15 16 17 20 23 24 23 23 23 23 23 24 26 28 29 29 30 30 30 31
18 20 21 21 22 23 24 25 25 24 24 27 29 31 32 32 32 33 34 33 32 32 32 30 28 29 31 33 34 33 34 35 34 35 38 39 38 37 37 37 37 37 37 36 36 36 34 33 31 28 25 22 18 14 11 9 10 11 12 12 12 12 11 12 14 16 17 18 20 22 24 25 25 25 25 25 25 27 28 29 31 31 32 32 33
19 20 21 21 22 23 24 25 25 25 25 27 29 31 32 31 31 32 33 34 34 33 32 29 29 31 33 35 35 34 34 34 33 33 34 35 35 36 37 36 36 36 36 37 37 36 35 33 31 28 25 21 17 13 12 12 13 14 14 14 13 13 13 14 16 17 19 20 20 21 24 26 27 27 27 27 27 29 30 31 32 33 33 34 35
20 21 22 22 22 23 24 25 26 26 25 27 29 31 32 31 31 31 32 34 35 35 33 30 29 31 33 34 34 33 33 34 34 35 33 32 32 34 35 35 35 35 36 36 36 35 34 33 31 28 24 20 16 15 15 15 15 14 15 15 13 13 15 17 18 18 19 21 21 22 25 27 29 29 28 28 29 29 30 32 33 34 35 35 36
22 23 22 22 23 25 25 26 26 26 25 27 29 31 32 32 32 31 32 33 33 34 33 30 29 31 32 32 31 30 30 31 34 36 35 33 32 33 35 34 34 35 36 35 35 34 33 31 29 26 22 19 17 17 16 15 15 15 16 15 13 14 16 18 18 18 19 21 22 24 26 28 30 31 30 30 31 31 32 33 34 34 35 37 38
24 24 24 25 26 26 27 26 26 26 26 26 27 29 31 33 33 32 32 33 32 33 32 30 31 33 33 33 32 29 27 28 31 34 36 35 33 33 35 35 34 34 35 34 33 33 31 28 26 23 20 18 18 17 16 16 16 17 17 15 13 14 16 17 18 19 20 21 23 25 27 28 30 31 31 32 34 34 34 35 36 36 36 37 39
25 25 26 27 27 28 28 27 26 26 26 26 26 27 30 32 33 32 31 33 33 32 31 30 31 33 34 35 33 29 28 28 29 33 37 38 35 34 35 35 35 34 33 33 32 30 28 26 24 21 19 19 18 17 17 17 18 19 18 17 16 16 17 17 19 21 22 23 26 27 29 30 31 32 32 34 36 36 36 37 39 40 39 39 40
26 28 29 29 29 30 29 28 28 27 26 26 25 26 29 31 32 32 32 32 32 31 30 30 31 33 33 34 32 29 30 31 31 33 37 38 36 35 35 35 35 34 33 32 31 29 28 26 23 21 20 20 18 18 19 20 21 21 20 20 20 19 18 18 19 22 24 26 29 31 33 34 34 34 35 36 37 38 39 40 42 42 41 42 44
28 31 32 31 31 31 30 30 29 27 26 26 25 26 28 30 31 32 32 32 32 32 31 30 31 32 32 31 29 29 30 31 31 33 35 35 35 36 36 35 34 34 33 32 31 29 27 25 23 22 22 20 18 19 21 22 23 23 22 23 23 22 21 20 20 22 25 28 31 34 36 38 38 38 38 39 39 40 42 43 43 43 42 43 46
29 31 33 33 33 32 31 31 30 27 26 25 25 26 28 29 30 31 32 32 32 31 30 31 31 32 32 31 29 30 31 30 29 31 31 32 34 36 36 36 35 34 32 31 30 29 27 25 23 23 21 19 19 21 23 24 24 24 24 25 26 25 23 23 23 23 26 30 33 35 38 41 42 41 41 42 42 42 43 43 42 42 40 40 43
30 32 34 34 34 33 32 31 30 28 27 26 25 26 28 28 29 32 33 32 32 31 31 32 31 31 33 33 32 32 31 28 27 28 29 30 33 35 37 36 35 33 31 30 29 28 26 25 23 22 20 19 21 24 24 25 25 25 26 26 27 27 26 26 26 26 28 32 35 37 39 42 44 43 43 44 44 43 41 41 40 39 38 38 40
31 32 35 36 35 34 33 32 31 29 27 26 24 25 27 28 30 32 32 31 31 30 30 32 32 31 30 30 30 31 30 27 26 27 28 30 33 35 36 35 33 32 31 30 28 26 25 24 23 21 20 21 24 24 24 25 27 27 28 28 29 28 27 27 27 28 30 33 37 40 40 41 44 45 45 45 45 43 41 41 39 36 36 38 40
33 32 34 36 35 34 34 33 31 30 27 26 24 25 26 28 29 31 30 30 30 29 29 30 32 31 28 27 29 29 28 25 25 26 28 31 33 34 35 33 32 31 29 28 27 25 24 23 21 20 21 23 24 24 25 27 29 29 29 30 30 30 29 29 29 29 31 33 37 41 41 42 45 47 47 47 46 44 42 42 41 39 40 42 44
35 33 34 35 35 34 34 32 31 30 28 27 25 25 25 26 28 29 29 29 29 28 27 28 30 30 29 28 28 27 25 24 24 25 28 30 32 34 34 33 31 29 27 26 24 23 22 21 19 20 22 23 24 25 26 28 30 31 31 31 31 31 31 31 30 31 33 35 38 42 43 44 46 48 49 49 47 43 40 40 41 41 42 45 47
35 33 33 34 34 33 32 31 30 30 28 27 25 25 24 25 26 27 28 28 27 25 25 26 28 29 29 27 25 23 22 22 23 24 27 31 34 35 35 33 30 28 26 25 24 22 21 19 19 20 22 24 26 27 27 29 31 31 31 31 31 32 33 33 32 33 36 38 40 43 44 45 45 45 46 45 42 39 38 39 41 42 42 44 47
32 30 30 31 32 31 30 29 29 28 27 26 24 23 22 22 23 25 26 26 26 23 22 23 25 26 25 22 21 20 20 21 22 24 28 32 35 35 33 31 29 27 26 26 25 23 20 19 19 21 25 28 28 27 28 30 31 30 30 31 32 34 36 35 34 36 38 40 42 43 44 44 43 43 43 41 39 36 36 39 41 40 39 41 43
28 27 27 27 28 28 27 26 26 26 24 23 21 19 19 19 20 21 23 24 25 23 21 21 22 23 21 19 18 18 18 19 21 24 28 31 33 33 32 30 29 27 26 25 23 21 19 19 21 25 29 30 28 28 29 29 29 29 30 32 34 37 38 37 38 39 41 42 43 43 44 44 43 42 42 41 39 36 34 36 37 36 35 36 38
26 24 24 24 25 25 25 23 23 22 20 19 17 16 16 17 17 18 20 22 23 23 22 20 19 18 17 16 16 16 16 18 20 23 26 29 31 31 31 30 29 28 26 24 21 20 19 21 25 29 31 31 30 30 29 28 29 30 31 33 36 39 39 39 40 41 42 43 43 43 44 43 42 41 41 40 38 36 34 34 33 31 31 33 33
24 23 23 23 23 23 22 21 20 20 18 17 16 16 15 15 15 17 18 19 20 20 20 18 16 14 14 14 14 15 16 18 20 22 24 27 29 30 30 28 27 26 25 23 21 20 22 25 29 31 31 31 30 30 29 28 30 31 32 34 37 38 39 39 40 40 41 41 41 41 41 41 40 40 40 39 37 36 35 34 33 30 30 30 30
22 22 21 21 21 20 20 19 19 18 17 17 16 15 15 14 14 16 17 17 17 16 15 14 13 13 13 14 15 15 16 17 19 20 23 25 26 27 27 26 25 25 24 22 21 23 26 30 32 31 30 30 30 30 30 30 31 32 33 35 36 36 37 38 38 38 37 38 38 38 38 38 37 38 38 38 38 39 39 38 36 33 31 29 27
21 20 19 19 18 18 18 17 17 17 17 16 16 15 14 14 14 15 15 15 14 13 12 13 14 14 14 15 15 15 14 15 15 17 19 21 22 23 23 23 24 24 23 23 24 27 30 31 31 30 29 30 30 30 30 31 31 31 32 33 33 33 33 34 35 35 34 33 33 33 33 33 35 36 38 39 40 40 39 37 34 31 30 28 27
18 18 17 17 17 16 16 15 15 15 15 15 15 15 15 15 15 14 13 13 12 12 12 13 14 14 14 15 15 15 15 15 15 15 17 19 20 21 22 23 24 24 25 26 28 30 31 30 29 28 29 29 29 29 29 29 29 30 30 30 30 30 30 31 32 32 33 32 31 31 30 31 32 33 34 34 34 34 33 32 32 31 33 35 37
16 16 16 16 15 15 15 15 15 15 15 15 16 16 16 16 16 15 15 15 14 14 14 14 15 15 16 16 17 18 19 19 20 20 20 21 22 23 24 24 25 26 27 29 30 29 28 27 27 27 27 27 26 26 27 27 28 28 28 28 28 28 28 29 29 30 31 31 30 29 28 28 28 28 29 30 32 33 33 34 35 37 39 41 41
14 14 14 15 15 15 15 16 16 16 17 16 16 17 17 17 17 18 18 17 17 17 17 17 17 17 17 17 17 18 19 19 21 22 22 23 23 24 25 25 26 27 27 27 27 26 25 25 25 25 25 24 25 25 26 26 26 27 27 28 28 28 27 27 27 28 28 29 29 28 28 28 29 30 32 34 35 36 36 37 38 39 40 41 41
13 14 14 14 15 15 16 17 18 18 19 18 18 18 18 19 19 19 20 19 19 18 18 18 18 17 16 16 16 16 16 17 18 19 20 21 22 23 23 24 24 23 23 23 23 23 23 23 23 23 23 23 24 24 25 26 26 27 28 28 28 27 27 26 26 26 26 27 27 27 28 29 30 31 32 33 34 34 35 35 36 37 38 38 39
13 14 14 14 15 16 17 19 20 20 20 20 20 19 19 18 18 19 19 19 18 18 17 17 17 17 17 17 16 16 16 16 17 17 18 18 19 19 19 19 18 19 20 20 20 20 20 20 21 21 22 22 23 24 25 26 26 26 27 27 27 26 26 25 24 24 24 25 25 26 27 28 29 29 30 30 31 32 32 32 34 35 35 36 37
13 13 14 15 16 18 19 20 21 22 22 21 20 20 18 17 17 17 17 17 17 18 17 17 17 16 16 16 16 16 15 15 14 14 14 14 14 15 15 15 16 17 18 19 18 18 18 19 19 20 20 21 22 23 24 24 24 25 25 25 25 25 24 24 23 22 23 24 25 26 26 27 28 28 28 29 30 30 29 29 29 30 30 32 35
13 14 15 16 18 19 21 21 22 23 22 22 21 20 19 18 17 16 16 16 16 15 15 14 14 13 13 13 13 13 12 12 12 12 12 13 13 14 15 15 15 16 16 16 16 16 17 17 18 19 19 20 21 21 22 22 23 23 24 23 23 24 24 24 24 23 24 24 25 26 26 27 28 28 28 28 28 28 27 27 28 28 28 29 31
14 15 16 17 19 20 22 22 22 22 22 22 22 22 21 19 18 16 16 15 14 13 13 12 12 12 12 12 12 11 10 11 12 13 14 14 14 14 14 14 14 14 14 14 14 14 15 16 17 18 18 18 19 19 20 21 22 23 23 23 24 24 25 25 25 25 25 25 25 26 26 27 27 27 27 27 27 26 26 27 27 28 27 27 27
14 16 18 19 20 21 22 22 22 22 22 22 22 23 23 22 20 18 16 15 15 14 14 13 13 13 12 12 12 12 12 13 13 13 13 13 13 13 13 12 12 12 12 12 12 13 14 14 15 16 16 17 18 19 20 21 22 23 24 24 24 24 25 26 26 26 26 25 25 25 25 26 26 26 25 25 25 26 26 26 26 26 26 25 24
16 18 19 20 20 21 21 22 21 21 22 21 21 20 20 20 20 19 17 15 14 14 14 13 13 13 13 13 13 13 13 13 13 12 12 12 12 12 11 11 11 10 11 11 12 13 13 13 14 16 17 18 20 21 22 23 23 23 23 24 23 24 25 25 25 26 25 25 25 25 25 25 25 24 24 24 24 25 25 25 24 24 25 24 22
16 17 19 20 21 21 21 20 20 20 19 18 17 16 16 16 17 17 17 17 15 15 14 14 14 14 14 14 14 13 13 13 12 12 12 12 12 11 10 10 10 10 10 11 11 12 13 14 16 17 18 19 20 21 22 23 23 23 23 23 23 24 24 24 25 25 25 24 24 24 24 24 24 24 24 23 23 24 24 23 23 23 23 23 22
16 16 17 18 19 20 20 19 18 17 17 16 15 15 14 14 14 15 17 18 18 17 16 16 15 15 15 14 14 13 13 12 12 12 12 12 11 10 10 10 9 9 9 10 11 13 14 15 17 18 19 20 21 22 22 23 23 23 23 23 23 24 23 23 23 23 23 23 23 23 23 23 23 23 23 23 22 22 22 21 21 21 21 21 21
17 17 17 16 17 17 18 17 17 16 16 16 15 15 15 14 14 14 15 16 17 17 17 17 16 16 15 15 14 14 13 12 12 12 12 11 11 10 10 9 9 9 9 10 11 13 15 16 17 19 19 20 21 22 22 22 22 22 22 23 23 23 23 22 22 22 22 22 22 21 21 22 22 22 22 21 21 21 21 21 20 20 20 20 20
19 18 18 17 17 17 16 16 17 16 16 17 16 16 15 15 14 14 14 14 14 14 15 16 16 16 16 15 14 13 13 12 12 12 12 11 11 10 9 9 9 9 11 11 13 14 15 17 18 19 20 21 22 22 22 22 21 21 22 22 22 22 22 21 21 21 20 20 20 20 20 20 20 20 20 20 19 19 20 20 19 19 19 19 19
19 18 17 17 17 17 16 16 16 16 16 17 17 17 17 16 16 15 14 14 14 14 14 15 16 15 15 15 14 13 13 13 13 12 11 10 10 9 9 10 10 11 12 13 14 15 16 18 19 20 21 22 22 22 21 21 21 21 21 21 21 21 21 20 20 20 19 19 19 19 19 19 19 19 19 19 18 18 18 18 18 18 17 17 18
19 17 16 16 17 17 17 17 17 17 17 18 18 17 17 17 17 16 16 15 15 15 15 15 15 15 15 14 13 13 13 13 12 11 10 10 10 10 10 11 12 12 13 14 16 17 18 19 20 21 21 22 21 21 21 20 20 20 21 21 20 20 20 20 19 19 19 18 18 18 18 18 18 18 18 18 18 18 17 17 18 18 17 16 16
20 18 17 17 17 17 17 18 18 19 19 19 19 19 18 18 17 17 17 16 16 16 16 15 15 15 14 13 13 13 13 12 11 11 11 11 11 11 11 12 13 14 15 16 17 18 19 20 21 21 21 21 21 20 20 20 20 20 20 20 20 20 19 19 19 19 19 18 17 17 18 18 18 18 18 18 17 17 17 17 17 17 17 16 16
20 19 18 18 18 18 18 19 19 19 20 20 20 19 19 18 18 17 17 17 17 17 16 16 15 15 14 13 13 12 12 12 12 12 12 12 12 12 12 13 14 15 16 18 18 19 20 20 21 21 21 20 20 20 20 20 20 20 20 19 19 19 19 19 19 19 19 18 17 17 18 18 17 17 17 18 17 17 17 16 16 16 16 16 16
20 19 19 19 19 19 19 20 20 20 20 19 19 19 19 18 18 18 18 18 17 17 17 16 15 15 15 14 13 13 13 13 13 13 13 13 13 13 14 15 16 17 18 19 19 20 20 21 21 21 20 20 20 20 20 20 20 20 20 19 19 19 19 19 19 19 19 18 17 17 17 17 17 17 17 17 17 17 17 17 16 16 16 17 17
20 20 20 20 20 20 20 20 20 19 19 19 19 19 19 19 20 20 19 19 19 18 17 16 16 16 15 15 14 15 15 14 14 14 14 14 14 15 16 17 18 18 19 20 20 21 21 21 21 21 20 20 20 20 20 21 20 20 20 20 19 19 19 19 19 19 19 18 17 17 17 18 18 17 17 17 17 18 18 17 17 17 17 17 18
20 19 19 19 19 19 19 19 20 20 20 20 21 21 21 21 21 20 20 20 19 18 17 17 16 16 16 16 15 15 15 15 15 15 15 15 16 17 17 18 19 19 20 20 21 21 21 21 21 21 21 21 21 21 21 21 21 20 20 20 20 20 19 19 19 19 19 19 18 17 17 17 18 18 18 18 18 18 18 18 18 18 17 18 18
20 19 19 19 19 19 20 20 20 20 21 21 21 21 21 21 21 21 20 20 19 18 18 17 17 17 17 16 16 16 16 16 16 16 16 17 17 18 19 19 20 20 21 21 21 21 21 22 22 22 21 21 21 21 22 21 21 21 21 21 20 20 20 19 20 20 20 19 18 18 18 17 17 18 18 18 18 18 18 19 19 19 18 18 18
20 19 19 19 19 19 20 20 20 21 21 21 21 21 21 21 20 20 20 19 18 18 18 18 17 17 17 17 17 17 17 17 17 17 17 18 19 19 20 21 21 22 22 22 22 22 22 22 22 22 22 22 22 23 23 22 22 22 22 22 21 21 20 20 21 21 21 20 19 19 19 18 17 17 18 18 18 18 18 19 19 19 19 18 18
20 20 19 19 19 19 19 20 20 21 21 21 20 20 20 20 20 19 19 18 18 18 18 18 18 18 17 17 17 17 18 18 18 18 19 19 20 21 22 22 22 23 22 22 23 23 23 23 23 23 23 23 23 24 24 23 23 23 23 23 22 21 21 22 22 22 22 21 21 20 20 19 18 18 17 17 17 18 18 18 19 19 19 19 18
19 19 19 19 19 19 19 20 20 20 20 20 20 19 19 19 18 18 18 17 18 18 18 18 17 17 17 18 18 18 18 19 19 19 20 21 22 23 23 24 24 24 23 23 24 24 24 24 24 24 24 24 24 25 25 25 24 24 24 24 23 22 22 23 24 23 23 22 22 21 21 20 19 18 17 17 17 17 17 18 18 19 19 18 18
18 18 19 19 19 19 19 19 19 19 19 19 19 19 18 18 17 17 17 17 17 17 17 17 17 17 18 18 18 19 19 19 19 20 21 22 23 24 25 25 25 25 24 24 25 24 25 25 25 25 26 25 25 25 26 26 26 26 25 24 24 23 23 24 25 25 24 23 23 22 22 21 20 19 18 18 17 17 17 17 18 18 19 18 17
18 18 19 19 19 18 18 18 18 18 18 18 18 17 17 17 16 16 16 16 16 16 17 17 17 18 18 19 19 20 20 20 21 21 22 23 24 25 25 26 26 26 26 25 25 25 26 26 26 26 26 26 26 26 27 27 27 27 26 25 25 25 25 25 26 25 25 24 23 23 22 21 20 19 18 17 17 17 17 17 17 18 19 18 17
18 18 17 17 17 17 17 17 17 17 17 17 17 17 17 16 16 16 16 16 16 16 17 17 18 19 19 20 20 21 21 22 22 22 23 24 24 25 26 26 26 26 26 26 26 26 26 27 27 27 27 27 27 27 27 27 27 27 26 26 26 26 26 26 26 25 25 25 24 23 23 22 21 19 18 17 17 17 17 17 17 18 18 18 17
16 16 16 16 16 16 16 16 16 16 16 17 17 17 17 17 16 16 16 16 16 17 18 19 19 20 21 21 22 22 22 23 23 24 24 25 25 25 26 26 27 27 27 27 26 26 27 27 28 28 28 28 28 28 28 28 28 27 27 27 27 27 27 26 26 26 26 26 25 24 24 23 21 20 18 17 17 17 17 17 17 17 18 17 17
Wind_Direction
283 283 281 278 276 273 269 266 265 264 257 250 247 245 241 237 233 231 229 230 232 234 236 238 237 237 236 235 236 239 243 242 232 227 230 233 231 231 233 231 227 225 225 225 223 221 222 222 219 218 220 221 222 224 226 229 235 243 255 264 270 275 280 280 277 276 279 284 289 291 293 293 293 294 296 298 299 299 299 299 299 299 300 301 301
282 282 282 280 277 275 271 269 269 266 257 250 246 244 241 237 232 227 226 229 232 232 234 234 233 237 242 239 235 238 241 241 238 233 233 236 236 234 232 230 228 226 224 222 220 220 221 220 218 217 218 220 220 221 223 225 233 245 256 265 270 273 278 282 282 281 283 287 289 290 292 293 293 295 297 299 300 300 301 302 302 301 301 300 299
280 280 281 281 280 279 275 272 271 265 255 249 246 244 241 237 231 226 225 226 228 230 231 232 234 242 246 239 232 234 238 239 239 237 234 234 237 234 230 228 227 224 220 218 218 219 220 218 216 216 217 217 217 217 217 222 236 249 258 265 269 273 278 282 282 282 285 286 287 289 292 293 294 296 298 299 301 300 300 301 301 300 300 299 298
276 276 277 278 278 278 276 274 271 266 256 248 246 244 240 235 230 226 225 225 227 230 230 230 235 241 243 237 228 228 234 237 239 240 237 236 235 232 228 227 226 222 219 218 218 219 220 217 215 215 215 215 213 211 215 228 242 253 261 265 268 273 277 277 278 281 284 285 286 288 290 292 294 297 299 300 301 301 301 301 301 300 300 299 298
271 271 272 272 274 274 272 271 270 266 259 249 244 242 238 233 229 227 226 227 231 232 230 229 235 241 242 235 226 225 231 235 240 243 244 244 240 232 228 228 226 222 220 220 220 220 219 217 216 216 215 213 210 211 221 235 248 260 267 269 271 276 278 278 279 280 281 284 287 289 290 292 294 297 299 301 302 302 303 303 303 303 302 301 300
267 268 268 268 268 269 268 268 267 266 261 253 247 243 237 232 229 228 227 228 232 233 231 233 238 243 241 230 225 229 230 233 240 244 246 247 242 234 229 228 226 224 222 221 221 221 219 217 217 216 215 212 210 215 228 243 257 268 272 273 277 282 284 285 283 279 278 281 285 288 291 293 294 296 299 301 302 303 304 305 304 304 304 303 303
266 266 267 265 264 265 266 266 266 265 262 257 252 246 240 234 229 228 227 227 230 232 233 237 238 241 239 229 226 235 237 237 242 245 246 246 241 234 229 227 226 224 222 221 220 219 218 217 216 215 212 209 210 221 237 251 264 272 274 275 278 284 288 289 285 280 278 280 284 289 293 294 295 298 300 300 300 301 303 304 303 303 304 305 304
267 267 266 263 263 264 265 265 264 263 261 258 253 247 243 236 229 226 226 226 229 233 237 240 239 240 239 232 231 242 247 246 246 246 246 245 240 235 230 226 224 222 220 219 218 217 216 214 212 210 206 205 213 230 246 258 269 276 277 276 275 279 287 289 285 282 280 281 284 289 293 294 295 299 301 300 299 300 302 302 302 303 304 303 303
269 267 265 263 263 263 263 263 263 261 260 257 252 246 243 237 228 224 224 226 229 233 237 239 241 244 240 233 237 250 255 252 249 247 246 242 238 233 229 225 223 221 219 218 215 214 213 210 208 205 203 207 221 240 254 265 275 281 281 277 274 276 283 287 286 283 283 284 285 289 291 292 293 296 299 300 301 303 303 301 299 301 302 301 301
270 267 265 263 261 261 261 261 262 261 259 257 253 246 242 237 228 223 225 227 229 233 235 237 240 243 240 238 246 257 257 253 250 247 244 239 234 230 227 224 223 221 220 217 214 212 210 209 207 206 207 215 231 250 262 273 281 284 283 280 277 276 280 284 285 284 285 285 285 288 289 289 291 293 295 297 300 301 302 299 297 299 299 298 299
271 268 266 263 260 260 260 260 261 261 258 255 251 246 242 237 230 225 225 227 231 235 238 239 241 241 240 241 248 255 255 253 248 244 238 233 230 228 226 223 221 220 219 218 215 213 211 209 208 209 212 223 242 258 270 280 286 287 285 283 281 278 278 281 283 284 285 285 286 288 288 288 291 292 293 296 298 299 299 297 295 295 295 294 296
271 268 266 263 260 259 259 260 262 261 258 254 249 245 243 238 230 226 226 229 233 237 240 243 246 246 243 241 244 251 257 256 248 240 233 228 227 226 225 223 221 220 218 217 216 216 213 211 209 212 219 234 253 266 277 287 290 287 285 285 282 278 276 278 281 284 284 285 287 287 287 288 291 292 293 295 296 297 296 295 293 292 292 292 293
272 268 265 262 259 258 258 258 259 260 258 255 250 245 242 236 230 227 228 231 235 238 241 243 247 250 248 245 247 253 257 255 246 237 229 225 224 223 223 223 222 221 219 217 216 215 213 211 211 216 230 248 262 273 284 291 290 286 285 284 282 278 276 277 279 281 283 284 286 287 288 290 291 292 294 293 292 293 293 293 291 288 287 289 290
276 270 265 262 260 258 257 256 256 257 258 255 249 244 240 235 230 228 229 232 235 240 244 244 246 249 249 248 250 253 254 251 243 234 227 223 221 221 221 221 221 221 220 218 216 213 211 212 216 230 247 259 270 283 291 293 289 285 284 283 281 278 276 276 277 279 282 285 286 288 291 292 291 292 293 291 290 290 291 290 288 286 287 289 289
277 271 264 262 261 259 258 256 256 256 256 253 248 243 240 235 229 227 228 232 235 241 247 248 246 247 249 251 252 252 250 246 239 232 225 221 219 218 218 218 218 218 216 215 213 210 211 218 231 247 258 268 282 291 293 292 288 285 283 283 281 278 276 276 278 281 286 288 288 290 292 293 292 292 292 291 291 291 290 289 289 289 291 291 291
275 270 264 260 259 258 257 255 254 254 253 251 246 242 239 234 228 224 226 230 234 240 247 247 245 246 249 252 252 248 246 243 237 229 222 217 216 216 216 216 215 214 212 209 207 208 218 232 246 256 267 281 290 292 292 291 286 283 282 281 279 278 278 279 280 284 288 289 291 292 292 292 292 291 291 290 289 289 289 288 287 288 289 291 291
271 267 262 258 256 255 254 252 250 250 250 247 244 241 239 233 226 223 225 228 231 238 244 244 243 248 252 249 244 242 241 239 232 223 217 215 214 215 215 215 214 212 210 208 210 216 228 242 253 265 279 286 288 290 291 288 283 280 280 279 279 279 281 282 283 284 285 286 287 288 289 289 288 288 288 288 286 286 285 283 284 286 288 289 290
268 265 261 258 255 253 252 249 248 248 246 244 243 240 237 232 226 222 223 226 230 236 243 245 246 249 249 243 238 237 236 233 227 221 216 215 214 215 216 216 214 211 208 210 215 222 233 247 261 274 282 284 285 289 288 283 279 279 279 279 281 281 283 285 286 286 287 287 287 287 287 287 287 287 287 288 288 289 289 289 292 293 291 289 290
267 265 261 257 254 252 250 247 244 243 241 240 238 235 231 228 223 221 222 226 231 236 242 247 249 247 243 238 233 230 226 224 222 218 215 214 214 215 216 216 213 209 208 212 218 225 239 256 268 276 280 282 285 287 283 278 278 279 278 279 280 282 285 287 288 288 289 290 290 291 292 293 294 294 295 296 298 300 301 301 301 298 292 290 291
264 261 257 253 251 248 245 242 238 236 233 230 227 224 221 217 214 216 220 226 232 237 242 245 245 238 232 228 225 220 216 214 214 214 213 213 215 216 216 215 213 211 212 215 222 234 250 264 272 277 280 283 284 282 278 276 276 276 276 278 280 284 287 288 289 290 292 293 295 297 299 301 303 304 306 308 309 310 309 306 303 299 294 292 292
257 254 251 248 245 242 238 235 231 228 223 219 215 212 207 203 204 209 216 223 228 232 234 233 228 220 216 215 213 211 210 211 213 214 214 213 215 216 215 213 212 212 214 220 232 247 259 268 274 278 280 281 280 276 274 274 274 276 278 280 284 288 290 291 293 296 298 300 302 305 306 307 308 309 310 310 309 308 307 306 304 302 299 298 296
249 246 243 240 236 233 230 226 221 216 211 206 202 196 191 190 195 203 209 214 218 220 219 215 211 208 207 206 205 203 203 205 209 213 214 212 212 212 211 210 211 214 221 232 245 257 264 270 275 278 279 277 274 272 272 275 278 281 284 287 289 291 293 295 298 300 301 302 302 303 304 305 304 304 304 305 305 306 307 308 308 306 306 305 300
241 236 232 230 226 222 219 214 207 203 197 192 187 182 180 184 189 195 198 199 202 205 207 206 204 203 203 201 198 195 194 195 196 198 203 205 205 207 208 211 216 223 233 244 253 260 266 270 273 275 275 273 272 274 278 282 285 287 290 292 293 295 298 300 301 302 301 300 298 298 298 298 299 301 302 302 303 304 305 305 303 302 302 303 301
230 225 221 218 213 209 204 199 194 188 182 179 177 174 175 180 185 187 187 189 193 196 198 198 196 196 196 194 193 191 190 191 190 190 194 198 201 205 211 217 225 233 241 249 256 261 265 269 270 271 272 273 277 281 284 286 289 291 294 297 300 302 304 303 302 301 301 299 298 297 296 296 296 296 295 295 295 295 296 294 293 293 295 297 299
218 214 210 205 200 196 190 184 180 175 171 171 171 170 173 179 183 185 184 187 191 192 191 190 188 188 188 187 188 190 190 192 194 195 197 200 205 211 218 225 232 238 244 250 255 260 263 266 269 272 275 279 282 285 287 290 294 298 301 304 305 306 305 304 302 301 300 300 299 298 295 294 292 289 288 289 290 292 292 292 292 295 297 299 299
207 202 199 194 188 184 180 174 170 167 166 166 168 172 177 180 183 184 184 185 187 188 187 185 182 180 179 178 180 183 185 188 192 196 201 205 210 216 222 228 233 239 244 250 254 258 262 265 270 275 279 283 286 289 294 298 302 304 305 305 306 306 305 304 303 302 301 300 299 298 296 295 294 293 294 295 297 298 299 300 300 302 304 306 306
198 193 189 185 180 177 175 171 167 166 166 167 170 173 177 180 183 185 184 182 181 180 179 177 174 171 170 171 174 177 180 183 187 192 197 203 209 215 221 227 232 238 244 249 253 257 262 267 272 277 282 287 292 296 299 302 303 303 304 305 307 307 306 306 306 304 303 302 301 300 300 300 300 301 302 303 304 305 306 306 306 308 310 311 311
189 186 182 179 176 173 172 171 169 167 167 169 171 171 173 176 181 182 181 177 173 170 169 169 168 168 169 171 174 178 182 185 188 191 196 202 209 215 220 226 231 235 240 246 252 258 264 270 275 281 286 291 295 298 299 302 303 304 305 306 307 307 306 306 307 306 305 305 304 304 305 306 306 308 308 308 308 308 308 308 308 309 311 311 311
181 180 178 176 173 171 170 171 171 169 169 169 169 168 167 170 173 173 172 170 166 165 166 168 169 170 171 174 178 181 183 184 185 191 198 203 208 214 218 223 228 233 240 247 254 260 267 274 279 285 289 293 295 298 300 302 304 305 306 308 308 308 308 309 311 311 311 311 311 311 312 312 313 313 313 312 312 312 312 311 311 312 312 312 313
178 178 176 175 173 171 171 171 171 172 171 169 168 166 163 163 165 167 168 168 166 167 169 169 170 172 174 176 178 178 179 181 185 191 197 201 206 212 217 223 229 235 242 249 256 264 271 278 283 287 290 293 295 298 301 304 307 309 311 312 312 312 312 314 315 315 315 315 314 314 314 314 314 314 314 314 314 313 313 313 315 317 318 318 317
185 182 179 177 175 173 172 172 172 173 171 170 169 167 164 164 166 170 174 174 173 173 173 174 175 176 177 178 178 176 178 183 189 194 199 204 210 215 220 226 232 240 248 255 262 269 274 278 283 287 292 296 300 304 308 310 312 313 313 313 313 312 312 312 313 313 313 314 313 314 314 313 313 314 314 314 314 314 315 317 318 320 322 321 321
192 187 181 178 176 175 174 174 173 172 172 171 172 173 174 174 174 175 177 178 178 178 178 179 179 177 176 178 181 182 186 191 195 199 204 210 215 219 225 231 238 245 253 259 265 271 278 285 290 296 302 305 308 310 312 311 311 311 310 309 309 308 308 309 310 310 311 312 312 313 314 314 314 314 313 314 314 314 316 318 320 321 324 325 326
192 188 183 178 175 175 175 175 174 175 176 178 181 184 188 191 189 185 181 179 178 178 178 178 179 180 181 185 187 190 196 201 203 207 212 217 222 226 230 235 240 245 253 262 273 283 292 297 301 305 307 308 308 309 308 307 307 307 306 305 305 305 306 307 307 308 309 311 312 313 314 314 314 313 313 313 314 314 316 319 321 323 325 327 328
186 186 184 181 178 177 178 179 181 184 186 190 193 195 197 201 202 198 190 183 180 179 179 181 184 187 191 195 196 200 206 210 212 216 222 225 227 230 232 236 242 251 263 278 289 296 300 302 303 305 305 305 305 304 303 303 303 302 302 302 302 303 303 304 305 306 307 309 311 312 313 313 313 312 312 313 315 316 318 319 322 324 326 326 327
186 189 190 190 189 190 189 190 192 194 195 196 196 197 196 197 198 199 195 189 187 187 188 190 193 196 200 205 208 211 215 216 217 221 225 228 230 233 237 244 258 273 283 291 294 296 298 299 299 301 301 300 300 299 299 299 299 299 299 300 299 300 301 301 303 304 305 307 309 311 313 313 312 312 313 315 317 318 319 321 323 325 324 324 324
194 197 198 199 200 199 199 198 196 196 196 194 192 192 191 190 193 196 196 196 197 200 203 205 207 209 211 214 215 215 215 215 217 220 226 231 237 245 254 265 275 281 284 288 290 291 293 295 296 296 296 295 295 295 295 295 296 296 297 297 297 297 298 299 301 302 303 306 309 311 312 312 312 312 312 315 317 318 319 320 322 323 323 323 322
199 199 200 201 199 196 195 195 192 191 191 191 190 191 191 191 194 198 200 202 206 211 215 217 219 219 217 215 213 213 214 217 220 223 228 236 244 255 265 272 276 279 281 284 286 288 290 291 291 292 292 291 291 291 292 293 294 294 294 294 294 295 296 297 299 300 303 306 308 311 311 311 311 311 312 314 317 319 320 321 320 320 322 322 319
194 193 196 197 194 191 190 190 189 189 191 192 194 196 197 199 201 202 205 210 215 218 219 220 219 219 219 217 213 213 217 222 225 230 236 243 250 258 266 272 276 279 282 284 285 287 288 288 288 288 288 287 288 289 289 291 291 292 292 292 292 293 294 295 297 299 302 305 307 309 310 310 311 311 312 314 318 320 321 321 321 320 322 323 320
189 188 189 190 190 191 192 193 194 195 196 199 201 203 205 206 207 209 214 219 222 222 221 221 222 223 226 224 218 217 222 227 233 239 244 250 256 261 266 271 276 279 281 283 284 285 285 285 285 285 284 285 286 286 288 289 290 290 290 289 289 290 291 293 295 297 299 303 305 307 308 309 309 311 312 314 317 319 320 320 320 320 321 322 322
189 188 187 189 193 196 196 199 203 204 205 208 209 209 210 212 214 219 224 227 227 227 226 227 229 231 231 228 224 225 230 235 240 245 249 253 258 262 266 271 275 277 280 281 282 283 283 283 283 282 282 283 284 285 287 288 288 288 288 287 286 288 289 291 293 295 297 300 303 303 304 305 307 309 311 312 313 315 316 317 318 318 318 318 318
192 192 193 194 198 201 203 206 208 210 213 214 214 215 217 219 222 226 228 228 229 230 229 230 231 232 231 231 231 234 238 241 244 248 251 254 258 263 267 271 273 275 278 279 280 281 282 281 281 281 281 281 283 284 285 286 285 285 285 284 283 285 286 288 291 293 295 298 300 299 300 301 304 306 309 310 311 311 312 312 313 313 314 315 315
198 199 200 202 204 206 209 212 213 214 215 217 218 220 222 224 226 227 227 227 229 230 230 232 232 232 233 236 237 240 244 245 247 250 252 256 260 264 267 270 273 275 277 279 279 280 280 279 279 279 279 280 281 282 283 283 282 281 281 280 280 282 283 285 287 290 292 295 296 296 296 298 301 303 305 306 307 308 308 308 309 309 310 311 312
202 204 207 210 211 213 215 216 217 218 219 219 221 223 224 225 226 227 227 228 229 230 232 234 234 234 237 241 243 246 248 248 250 253 255 259 263 266 269 272 274 276 277 278 278 278 279 278 278 278 279 279 280 281 280 280 280 279 278 277 277 278 280 283 285 287 289 291 293 293 294 295 298 300 302 303 304 305 305 306 305 305 306 309 310
207 209 213 216 217 218 219 218 219 221 222 223 224 225 225 226 226 227 228 230 231 232 234 235 237 240 243 246 247 248 249 250 252 255 259 262 266 269 271 274 275 276 277 277 277 277 277 277 277 277 278 279 279 280 279 278 278 277 276 275 275 276 278 280 282 284 286 288 289 290 291 292 294 296 298 299 300 302 303 303 303 303 304 306 307
213 215 217 219 220 222 223 223 223 224 224 225 225 225 226 226 227 228 230 232 233 235 238 239 242 245 247 248 248 248 249 252 255 259 263 266 269 271 273 274 275 275 276 276 276 276 276 276 275 276 277 277 277 278 277 277 276 275 274 273 273 274 275 277 279 281 283 285 286 287 288 289 290 292 293 295 296 298 300 300 300 301 302 304 305
217 218 219 220 222 224 226 228 227 226 225 225 226 226 227 228 228 229 231 233 236 239 242 244 246 247 247 247 248 249 251 255 259 262 267 270 272 273 274 274 274 275 275 275 275 275 274 274 274 274 275 275 276 276 276 276 274 273 272 271 271 272 273 275 277 278 280 282 282 283 284 285 286 287 288 289 292 294 296 298 298 299 300 302 304
219 219 220 222 223 225 227 228 228 227 227 226 227 227 228 229 230 231 235 238 242 245 247 247 247 247 247 248 250 252 255 259 263 266 270 272 273 274 275 275 275 275 275 274 274 274 273 272 272 272 272 273 274 274 275 275 273 272 270 270 270 271 271 273 275 276 278 279 280 280 281 281 282 282 283 284 286 289 291 293 295 296 297 300 302
219 221 222 223 223 224 225 227 228 229 229 228 229 229 229 230 233 237 241 244 247 248 249 248 248 248 250 252 255 258 261 264 267 269 271 272 273 273 274 275 275 275 275 274 273 272 271 271 270 270 271 272 273 273 274 273 273 272 270 270 270 270 270 271 273 275 276 277 277 278 278 278 278 278 278 279 280 283 286 288 291 293 295 298 300
220 221 222 223 223 223 225 226 227 229 229 229 230 231 232 235 240 243 246 249 250 249 250 250 251 253 256 258 261 264 266 268 270 271 272 272 273 274 274 275 275 275 274 273 272 271 271 270 270 270 271 271 272 273 272 272 272 271 271 270 270 269 268 270 272 275 275 275 275 275 275 275 275 275 275 276 277 278 281 284 287 289 292 295 298
220 220 221 223 224 224 225 226 227 228 229 230 231 233 236 240 245 248 250 251 252 252 254 255 256 259 262 264 267 269 270 271 272 273 273 273 274 274 274 275 275 274 274 274 272 272 272 271 271 272 273 273 272 272 272 272 271 271 270 270 269 268 269 270 272 273 274 273 273 273 272 272 272 272 272 272 273 274 277 280 282 285 288 292 295
219 221 222 223 224 225 227 228 228 230 231 232 235 239 242 246 249 251 253 254 255 256 257 259 261 264 267 269 271 272 273 274 274 274 274 274 274 274 275 275 275 275 275 275 274 273 273 272 273 273 274 274 274 273 273 272 272 271 270 269 268 268 269 271 272 272 272 271 270 270 270 270 270 270 270 269 269 270 273 276 278 281 285 288 292